Regional Weather Roundup
Issued by NWS

Home | Current Version | Previous Version | Text Only | Print | Product List | Glossary Off
Versions: 1 2 3 4 5 6 7 8 9 10 11 12 13 14 15 16 17 18 19 20 21 22 23 24 25 26 27 28 29 30 31 32 33 34 35 36 37 38 39 40 41 42 43 44 45 46 47 48 49 50

765
ASUS43 KFSD 260002
RWRSD

WEATHER ROUNDUP FOR SOUTH DAKOTA
NATIONAL WEATHER SERVICE SIOUX FALLS SD
700 PM CDT WED MAY 25 2016

NOTE: "FAIR" INDICATES FEW OR NO CLOUDS BELOW 12,000 FEET WITH NO
SIGNIFICANT WEATHER AND/OR OBSTRUCTIONS TO VISIBILITY.


SDZ001>005-009-010-012>017-260100-
NORTHWEST AND NORTH CENTRAL SOUTH DAKOTA

CITY           SKY/WX    TMP DP  RH WIND       PRES   REMARKS
BUFFALO          N/A     64  42  44 NW14      29.79F
FAITH            N/A     67  42  40 NW18      29.83R
MOBRIDGE       PTSUNNY   69  55  60 NW13G22   29.73R
$$

SDZ012>016-024>037-041>051-057-063-072>074-260100-
SOUTHWEST AND SOUTH CENTRAL SOUTH DAKOTA

CITY           SKY/WX    TMP DP  RH WIND       PRES   REMARKS
RAPID CTY ARPT LGT RAIN  62  47  57 NE5       29.88R
PIERRE         CLOUDY    69  52  54 W8        29.78R
CUSTER         CLOUDY    59  38  45 VRB6      29.95S
ELLSWORTH AFB  LGT RAIN  63  48  58 E2        29.87R
PHILIP         SUNNY     69  50  50 NW12      29.83S
PINE RIDGE     MOSUNNY   68  43  40 W9        29.89R
WINNER         FAIR      70  49  47 NW7       29.81R
$$

SDZ004>011-016>023-039-040-260100-
NORTHEAST SOUTH DAKOTA

CITY           SKY/WX    TMP DP  RH WIND       PRES   REMARKS
ABERDEEN       SUNNY     75  57  53 W13       29.74R
WATERTOWN      MOSUNNY   75  58  55 SW13      29.77S
BROOKINGS      MOSUNNY   74  59  59 SW9       29.79R
SISSETON         N/A     75  58  55 SW10      29.72S
$$

SDZ017-020-022-023-036>040-048>070-260100-
SOUTHEAST SOUTH DAKOTA

CITY           SKY/WX    TMP DP  RH WIND       PRES   REMARKS
SIOUX FALLS    MOSUNNY   78  61  55 VRB5      29.78F
HURON          SUNNY     74  56  53 W5        29.75F THUNDER
MITCHELL       SUNNY     76  60  57 SE5       29.77F
YANKTON        SUNNY     81  59  47 NW7       29.75F
$$

ABBREVIATIONS USED IN REMARKS
   TC - TEMPERATURE IN CELSIUS
  WCI - WIND CHILL INDEX
   HX - HEAT INDEX
  VSB - VISIBILITY





USA.gov is the U.S. government's official web portal to all federal, state and local government web resources and services.